This is the latest recevied weather packets stored in our database for station/object K6CQU-13. If no packets are shown the sender has not sent any weather packets the latest 10 day(s).
| Time | Temp. | Humidity | Pressure | Rain* | Wind** | Luminosity | Snow |
|---|---|---|---|---|---|---|---|
| 1788030616 | 25° C | 55% | 1014.3 hPa | 0 mm | - | 818 W/m² | - |
| 1788030316 | 25° C | 56% | 1014.3 hPa | 0 mm | - | 812 W/m² | - |
| 1788030018 | 24.44° C | 55% | 1014.4 hPa | 0 mm | - | 807 W/m² | - |
| 1788029718 | 24.44° C | 56% | 1014.4 hPa | 0 mm | - | 802 W/m² | - |
| 1788029418 | 25° C | 55% | 1014.5 hPa | 0 mm | - | 796 W/m² | - |
| 1788029118 | 25° C | 53% | 1014.5 hPa | 0 mm | - | 789 W/m² | - |
| 1788028818 | 25° C | 53% | 1014.5 hPa | 0 mm | - | 784 W/m² | - |
| 1788028518 | 24.44° C | 53% | 1014.4 hPa | 0 mm | - | 777 W/m² | - |
| 1788028218 | 24.44° C | 54% | 1014.4 hPa | 0 mm | - | 771 W/m² | - |
| 1788027918 | 24.44° C | 54% | 1014.4 hPa | 0 mm | - | 764 W/m² | - |
| 1788027617 | 24.44° C | 53% | 1014.4 hPa | 0 mm | - | 756 W/m² | - |
| 1788027318 | 24.44° C | 53% | 1014.4 hPa | 0 mm | - | 749 W/m² | - |
| 1788027018 | 24.44° C | 53% | 1014.4 hPa | 0 mm | - | 740 W/m² | - |
| 1788026718 | 24.44° C | 54% | 1014.4 hPa | 0 mm | - | 729 W/m² | - |
| 1788026417 | 24.44° C | 55% | 1014.4 hPa | 0 mm | - | 718 W/m² | - |
| 1788026118 | 24.44° C | 56% | 1014.4 hPa | 0 mm | - | 710 W/m² | - |
| 1788025818 | 23.89° C | 58% | 1014.4 hPa | 0 mm | - | 702 W/m² | - |
| 1788025517 | 23.89° C | 60% | 1014.4 hPa | 0 mm | - | 690 W/m² | - |
| 1788025218 | 23.89° C | 61% | 1014.4 hPa | 0 mm | - | 677 W/m² | - |
| 1788024917 | 23.33° C | 61% | 1014.4 hPa | 0 mm | - | 665 W/m² | - |
| 1788024617 | 22.78° C | 63% | 1014.4 hPa | 0 mm | - | 652 W/m² | - |
| 1788024318 | 22.22° C | 63% | 1014.5 hPa | 0 mm | - | 640 W/m² | - |
| 1788024018 | 22.22° C | 63% | 1014.5 hPa | 0 mm | - | 630 W/m² | - |
| 1788023717 | 21.67° C | 65% | 1014.5 hPa | 0 mm | - | 618 W/m² | - |
| 1788023417 | 21.67° C | 67% | 1014.6 hPa | 0 mm | - | 604 W/m² | - |
* Rain latest hour (hover to see other rain measurements)
** Current wind speed in m/s (hover to see current wind gust speed)